SCP
0 0 0 0 -0 0 0 0 0 0 0 0 0 0 0 0 0 0 0 0 0 0 0 0 0 0 0 0 0 0 0 0 0 0 0 0 0 0 0 0 0 0 0 0 -0
0 0 0 0 -0 0 0 0 0 0 0 0 0 0 0 0 0 0 0 0 0 0 0 0 0 0 0 0 0 0 0 0 0 0 0 0 0 0 0 0 0 0 0 0 -0
0 0 0 -0 -0 -0 0 0 0 0 0 0 0 0 0 0 0 0 0 0 0 0 0 0 0 0 0 0 0 0 0 0 0 0 0 0 0 0 0 0 0 0 0 0 0
0 0 0 0 -0 -0 0 0 0 0 0 0 0 0 0 0 0 0 0 0 0 0 0 0 0 0 0 0 0 0 0 0 0 0 0 0 0 0 0 0 0 0 0 0 0
0 0 0 0 -0 -0 0 0 0 0 0 0 0 0 0 0 0 0 0 0 0 0 0 0 0 0 0 0 0 0 0 0 0 0 0 0 0 0 0 0 0 0 0 0 0
0 0 0 -0 0 0 0 0 0 0 0 0 0 0 0 0 0 0 0 0 0 0 0 0 0 0 0 0 0 0 0 0 0 0 0 0 0 0 0 0 0 0 0 0 0
0 0 0 -0 0 0 0 0 0 0 0 0 0 0 0 0 0 0 0 0 0 0 0 0 0 0 0 0 0 0 0 0 0 0 0 0 0 0 0 0 0 0 0 0 0
0 0 0 0 -0 0 0 0 0 0 0 0 0 0 0 0 0 0 0 0 0 0 0 0 0 0 0 0 0 0 0 0 0 0 0 0 0 0 0 0 0 0 0 0 0
0 0 0 0 -0 0 -0 0 0 0 0 0 0 0 0 0 0 0 0 0 0 0 0 0 0 0 0 0 0 0 0 0 0 0 0 0 0 0 0 0 0 0 0 0 0
0 0 0 0 0 0 0 0 0 0 1 0 0 0 0 0 0 0 0 0 0 0 0 0 0 0 0 0 0 0 0 0 0 0 0 0 0 0 0 0 0 0 0 0 0
0 0 0 0 0 0 0 0 0 0 0 0 0 0 0 0 0 0 0 0 0 0 0 0 0 0 0 0 0 0 0 0 0 0 0 0 0 0 0 0 0 0 0 0 0
0 0 0 0 0 0 0 0 0 0 0 0 0 0 0 0 0 0 0 0 0 0 0 0 0 0 0 0 0 0 0 0 0 0 0 0 0 0 0 0 0 0 0 0 0
0 0 0 0 0 0 0 0 0 0 0 0 0 0 0 0 0 0 0 0 0 0 0 0 0 0 0 0 0 0 0 0 0 0 0 0 0 0 0 0 0 0 0 0 0
0 0 0 0 0 0 0 0 0 0 0 0 0 0 0 0 0 0 0 0 0 0 0 0 0 0 0 0 0 0 0 0 0 0 0 0 -0 0 0 0 0 0 0 0 0
0 0 0 0 0 0 0 0 0 0 0 0 0 0 0 0 0 0 0 0 0 0 0 0 0 0 0 0 0 0 0 0 0 0 0 0 0 -0 0 0 0 0 0 -0 0
0 0 0 0 -0 0 0 0 0 0 0 0 0 0 0 0 0 0 0 0 0 0 0 0 0 0 0 0 0 0 0 0 0 0 0 0 0 -0 0 0 0 0 0 0 0
0 0 0 0 -0 0 0 0 0 0 0 0 0 0 0 0 0 0 0 0 0 0 0 0 0 0 0 0 0 0 0 0 0 0 0 0 0 0 0 -0 0 0 0 0 0
0 0 0 0 0 0 0 0 0 0 0 0 0 0 0 0 0 0 0 0 0 0 0 0 0 0 0 0 0 0 0 0 0 0 0 0 0 0 0 -0 0 0 0 0 0
0 -0 -0 -0 0 0 0 0 0 0 0 0 0 0 0 0 0 0 0 0 0 0 0 0 0 0 0 0 0 0 0 0 0 0 0 0 0 0 0 0 0 0 0 0 0
-0 -0 -0 -0 0 0 0 0 0 0 0 0 0 0 0 0 0 0 0 0 0 0 0 0 0 0 0 0 0 0 0 0 0 0 0 0 0 0 0 0 0 0 0 0 0
-0 -0 -0 0 0 0 0 0 0 0 0 0 0 0 0 0 0 0 0 0 0 0 0 0 0 0 0 0 0 0 0 0 0 0 0 0 0 0 0 0 0 0 0 0 0
0 -0 -0 0 0 0 0 0 0 0 0 0 0 0 0 0 0 0 0 0 0 0 0 0 0 0 0 0 0 0 0 0 0 0 0 0 0 0 0 0 0 0 0 0 0
-0 -0 0 0 0 0 0 0 0 0 0 0 0 0 0 0 0 0 0 0 0 0 0 0 0 0 0 0 0 0 0 0 0 0 0 0 0 0 0 0 0 0 0 0 0
-0 0 0 0 0 0 0 0 0 0 0 0 0 0 0 0 0 0 0 0 0 0 0 0 0 0 0 0 0 0 0 0 0 0 0 0 0 0 0 0 -0 0 0 0 0
0 0 0 0 0 0 0 0 0 0 0 0 0 0 0 0 0 0 0 0 0 0 0 0 0 0 0 0 0 0 0 0 0 0 0 0 0 0 0 0 0 0 0 0 0
0 0 0 0 0 0 0 0 0 0 0 0 0 0 0 0 0 0 0 0 0 0 0 0 0 0 0 0 0 0 0 0 0 0 0 0 0 0 0 0 0 0 0 0 0
0 0 0 0 0 0 0 0 0 0 0 0 0 0 0 0 0 0 0 0 0 0 0 0 0 0 0 0 0 0 0 0 0 0 0 0 0 0 0 0 0 0 0 0 0
Wind_Speed_500mb
64 69 65 83 105 101 72 72 66 73 64 74 70 64 68 68 63 57 55 53 46 27 37 35 28 22 18 13 12 14 8 5 10 13 8 17 12 13 12 16 17 18 8 10 48
61 67 70 70 80 84 70 75 74 73 70 66 68 71 58 55 53 63 63 51 40 38 38 42 39 29 17 12 9 7 8 15 8 6 4 11 17 26 13 15 14 20 18 15 52
60 67 71 73 84 78 72 70 76 78 71 63 65 58 57 46 34 62 67 51 51 39 38 45 41 31 12 10 9 6 9 10 2 8 8 5 12 24 21 6 29 40 36 28 53
56 60 66 72 73 77 79 69 77 79 78 72 74 59 51 48 18 35 53 52 47 45 47 51 43 20 12 7 7 5 8 10 6 2 2 5 9 15 32 14 18 30 33 35 52
48 59 62 76 73 83 70 62 83 83 84 73 68 56 44 32 23 22 41 57 49 57 51 52 46 25 16 14 12 7 3 9 5 3 4 8 18 14 36 24 10 25 33 38 47
57 56 61 68 72 72 73 75 83 85 86 78 70 62 67 22 48 16 29 64 58 63 55 51 32 24 18 8 8 6 7 11 3 2 1 5 5 6 17 41 20 24 33 42 45
55 55 66 62 66 69 71 76 65 87 89 85 78 75 58 57 29 15 38 66 63 59 56 47 34 37 26 12 12 4 6 10 8 8 5 6 4 15 13 35 25 28 33 43 45
53 51 62 63 69 64 70 68 48 85 91 89 78 81 21 36 27 27 43 62 58 55 39 43 39 34 12 16 10 6 8 4 5 10 7 12 13 10 20 22 31 31 37 44 46
46 52 58 59 67 72 68 65 53 84 90 87 85 51 15 39 33 41 51 62 55 55 43 43 29 19 18 12 9 6 4 9 10 13 8 10 14 14 22 25 28 31 37 44 47
50 57 54 54 64 71 60 69 56 85 105 91 70 33 23 43 57 42 51 56 57 50 43 31 14 7 6 7 12 13 11 8 9 5 2 4 16 4 8 25 30 32 39 48 50
50 57 54 48 60 61 60 60 57 69 113 42 81 38 63 44 61 44 55 64 52 46 12 15 9 14 18 16 11 13 11 9 7 5 9 12 15 16 21 14 20 37 41 47 54
49 53 56 53 58 73 75 74 96 34 41 50 89 25 69 64 37 49 63 36 29 16 17 10 13 15 15 12 11 8 10 11 3 1 8 4 19 22 17 25 40 42 44 52 56
45 51 51 56 56 70 85 92 66 55 20 22 66 39 74 81 60 72 74 39 32 16 12 17 18 22 16 10 14 5 11 9 8 2 3 3 13 16 15 30 44 49 51 46 54
51 47 44 51 52 76 87 80 68 80 11 18 24 24 37 47 16 75 72 51 11 24 16 13 7 24 14 12 11 12 12 9 10 6 8 1 10 12 11 16 13 57 59 68 69
44 45 42 49 28 77 85 78 87 35 27 30 14 42 46 37 54 42 67 18 22 18 16 15 20 22 12 18 16 15 13 10 6 6 4 5 2 14 6 12 17 44 70 79 77
36 47 39 54 60 52 89 72 91 12 14 16 25 22 33 11 15 56 29 22 27 12 11 10 10 16 18 7 11 18 15 13 8 6 5 12 12 10 11 16 16 47 64 76 84
40 49 46 53 53 67 98 83 22 23 15 17 24 45 48 14 14 55 38 25 20 19 13 6 6 6 12 16 9 6 15 4 2 2 10 4 5 12 17 19 15 10 28 33 41
46 50 57 67 51 80 111 32 28 16 13 11 33 45 33 32 8 39 43 28 11 14 14 23 14 18 11 16 19 15 17 11 14 7 5 3 14 12 22 28 42 44 41 27 27
43 57 61 71 61 77 91 35 20 27 17 31 49 53 26 12 19 27 39 47 15 17 17 20 9 2 6 11 24 12 12 13 13 5 6 8 13 19 24 21 31 41 34 47 50
43 42 64 58 50 69 39 38 12 25 25 51 35 42 52 52 26 35 43 36 29 13 5 12 11 3 6 11 5 16 22 6 3 7 8 7 8 11 15 10 10 18 34 33 36
38 17 41 59 63 58 31 22 17 35 52 42 27 15 35 52 36 41 40 3 14 11 7 10 10 4 9 12 17 8 9 4 10 9 10 1 11 15 15 14 12 17 15 15 19
17 11 28 70 22 22 29 13 25 48 46 7 11 13 31 54 20 35 22 23 44 24 17 5 11 8 11 5 5 3 16 13 10 10 3 6 12 10 15 10 6 9 8 13 10
11 19 49 104 24 29 28 6 27 53 38 17 13 8 33 34 13 11 15 15 46 33 25 15 2 8 7 3 4 8 3 13 9 5 14 9 12 5 15 14 6 2 6 5 9
8 6 16 71 37 51 42 23 34 45 9 11 17 31 36 26 7 14 26 14 51 18 27 25 9 15 16 4 17 12 12 12 12 6 7 30 4 7 9 6 6 2 8 7 13
16 10 17 22 24 48 52 43 51 31 13 18 12 45 45 17 8 16 20 11 16 42 17 11 16 8 7 8 14 12 22 24 37 53 21 31 25 20 21 7 5 4 6 7 7
12 9 9 21 35 51 46 50 66 32 37 37 35 54 44 33 23 19 17 9 27 7 13 5 3 7 6 5 10 8 18 41 49 35 52 26 15 6 45 28 20 20 18 24 27
22 29 13 27 50 36 30 48 63 42 16 38 43 39 27 18 20 30 27 21 33 33 28 15 12 6 7 3 12 8 27 27 28 29 23 40 16 12 12 23 48 47 39 44 43
Wind_Direction_500mb
250 251 252 250 250 253 251 231 232 227 233 229 217 194 198 198 202 204 206 208 203 186 191 196 196 198 189 163 147 135 78 205 211 159 232 167 180 164 178 158 168 185 173 162 178
248 249 249 254 247 246 248 225 227 220 222 227 211 203 191 194 203 212 210 209 205 199 184 184 177 160 145 135 155 132 140 209 209 223 189 204 186 169 165 163 199 191 193 177 179
247 247 248 245 240 243 258 224 223 215 219 224 211 217 199 193 200 222 211 204 209 202 196 186 173 160 124 144 161 157 176 181 173 256 268 223 220 177 158 218 209 204 201 187 184
249 247 248 241 244 250 250 239 219 214 213 216 215 205 209 198 190 221 212 206 205 196 190 190 195 174 126 156 171 155 223 173 165 93 276 208 200 203 199 206 231 220 219 198 191
253 249 247 239 235 231 240 242 211 213 209 209 208 193 204 191 205 188 187 192 203 191 191 179 172 151 142 166 139 160 216 195 193 251 271 247 234 222 220 214 214 198 211 211 204
252 252 242 247 235 238 234 241 209 211 206 206 198 197 200 202 211 175 184 181 195 188 189 190 192 167 132 163 141 150 324 283 184 110 99 164 246 217 235 214 208 203 212 211 212
248 246 244 242 241 236 241 246 212 208 205 202 202 197 192 219 214 196 174 188 188 185 172 177 189 171 147 124 148 111 116 326 244 175 140 161 238 232 261 206 209 207 209 210 211
243 242 243 234 243 235 236 240 217 207 204 198 197 195 176 177 200 188 173 174 181 182 175 163 167 157 146 135 78 52 67 91 274 191 172 159 267 245 221 217 216 207 206 209 210
241 237 245 233 237 232 227 231 209 204 202 195 187 179 182 190 185 189 176 172 172 181 180 177 156 157 140 118 64 33 169 199 304 213 156 170 238 198 201 213 226 222 213 215 217
242 237 239 233 228 228 221 230 213 198 194 185 178 165 180 195 186 174 173 171 156 155 151 160 154 110 75 129 188 179 173 196 196 231 203 195 263 267 214 212 221 225 225 224 224
248 242 239 243 225 224 212 220 201 187 167 177 173 182 181 171 175 174 171 168 153 149 131 162 129 176 181 171 170 142 149 165 204 209 177 209 252 247 227 246 222 235 232 231 231
243 248 246 238 233 220 209 220 193 204 152 191 177 166 165 168 154 166 163 147 152 144 123 80 194 199 160 161 138 150 158 195 294 320 196 199 257 259 199 233 237 234 231 239 240
243 248 243 243 244 224 211 221 199 189 131 183 175 171 162 171 166 164 168 152 150 135 167 152 197 148 138 141 138 156 166 173 178 110 274 350 276 258 247 235 245 247 244 241 243
239 252 252 238 251 216 207 215 205 174 156 150 182 185 171 165 131 167 169 151 156 173 129 168 140 150 144 169 132 163 210 151 145 111 229 318 273 277 246 244 216 238 243 243 242
245 255 263 219 240 212 209 209 191 181 186 148 157 169 165 166 145 177 165 145 152 153 147 186 152 151 158 180 156 211 130 127 100 116 7 326 306 266 352 247 249 237 237 242 247
243 257 265 232 252 217 204 206 169 182 165 148 156 169 154 148 165 153 160 151 132 104 64 153 156 156 168 93 144 151 84 52 54 88 283 221 188 251 192 203 234 240 240 240 241
252 255 259 231 250 225 192 172 176 198 148 149 154 162 166 140 127 162 168 155 156 134 159 98 155 136 135 90 44 99 100 32 316 285 223 36 275 271 257 245 231 253 246 250 247
253 263 262 240 247 199 171 166 196 122 166 141 160 152 153 138 122 176 162 172 226 116 137 166 201 167 179 158 161 189 161 157 190 201 239 68 241 246 234 273 264 253 257 251 230
264 274 256 234 230 202 166 196 174 148 146 142 161 153 133 183 132 164 186 191 169 175 152 162 185 61 122 143 150 188 199 153 106 38 61 218 288 292 266 267 268 262 254 254 249
266 280 254 235 230 206 179 183 134 139 129 152 154 168 164 182 147 173 185 205 188 172 169 179 110 343 140 107 53 175 153 154 357 153 250 262 267 238 275 298 325 253 237 248 249
267 254 268 228 200 197 185 193 129 145 148 160 158 157 169 171 177 177 182 51 149 123 61 132 98 208 140 211 162 132 180 94 133 171 176 211 258 216 254 255 287 306 240 246 233
244 245 222 180 171 185 187 182 115 150 157 137 99 55 162 169 154 176 176 198 169 144 139 154 108 137 188 209 187 135 170 156 166 234 289 130 267 208 230 244 256 311 347 233 218
222 252 191 176 180 184 170 221 141 155 162 158 128 154 150 165 133 133 139 158 161 166 164 177 103 99 62 318 42 200 163 161 110 89 201 156 253 207 250 253 253 313 118 163 195
265 259 238 181 174 172 172 185 152 166 97 100 111 127 140 166 69 147 150 177 174 165 176 136 147 158 184 171 135 170 162 159 141 226 167 234 287 291 221 168 301 340 71 152 182
225 237 253 173 174 177 169 172 152 165 158 132 115 158 157 148 124 156 154 124 164 164 153 144 183 144 57 142 150 155 172 176 199 222 200 238 211 237 275 275 211 157 135 139 172
214 214 232 149 160 169 174 178 168 164 158 183 164 168 168 159 183 157 123 135 168 90 133 17 232 121 34 56 126 139 187 196 212 216 235 233 250 232 240 241 216 224 230 255 260
235 248 255 167 168 164 182 172 173 158 3 167 145 155 168 161 101 137 150 125 150 172 171 134 126 96 212 22 100 329 215 207 223 221 225 237 214 203 225 238 257 263 265 270 275
Wind_Speed_850mb
64 69 65 83 105 101 72 72 66 73 64 74 70 64 68 68 63 57 55 53 46 27 37 35 28 22 18 13 12 14 8 5 10 13 8 17 12 13 12 16 17 18 8 10 48
61 67 70 70 80 84 70 75 74 73 70 66 68 71 58 55 53 63 63 51 40 38 38 42 39 29 17 12 9 7 8 15 8 6 4 11 17 26 13 15 14 20 18 15 52
60 67 71 73 84 78 72 70 76 78 71 63 65 58 57 46 34 62 67 51 51 39 38 45 41 31 12 10 9 6 9 10 2 8 8 5 12 24 21 6 29 40 36 28 53
56 60 66 72 73 77 79 69 77 79 78 72 74 59 51 48 18 35 53 52 47 45 47 51 43 20 12 7 7 5 8 10 6 2 2 5 9 15 32 14 18 30 33 35 52
48 59 62 76 73 83 70 62 83 83 84 73 68 56 44 32 23 22 41 57 49 57 51 52 46 25 16 14 12 7 3 9 5 3 4 8 18 14 36 24 10 25 33 38 47
57 56 61 68 72 72 73 75 83 85 86 78 70 62 67 22 48 16 29 64 58 63 55 51 32 24 18 8 8 6 7 11 3 2 1 5 5 6 17 41 20 24 33 42 45
55 55 66 62 66 69 71 76 65 87 89 85 78 75 58 57 29 15 38 66 63 59 56 47 34 37 26 12 12 4 6 10 8 8 5 6 4 15 13 35 25 28 33 43 45
53 51 62 63 69 64 70 68 48 85 91 89 78 81 21 36 27 27 43 62 58 55 39 43 39 34 12 16 10 6 8 4 5 10 7 12 13 10 20 22 31 31 37 44 46
46 52 58 59 67 72 68 65 53 84 90 87 85 51 15 39 33 41 51 62 55 55 43 43 29 19 18 12 9 6 4 9 10 13 8 10 14 14 22 25 28 31 37 44 47
50 57 54 54 64 71 60 69 56 85 105 91 70 33 23 43 57 42 51 56 57 50 43 31 14 7 6 7 12 13 11 8 9 5 2 4 16 4 8 25 30 32 39 48 50
50 57 54 48 60 61 60 60 57 69 113 42 81 38 63 44 61 44 55 64 52 46 12 15 9 14 18 16 11 13 11 9 7 5 9 12 15 16 21 14 20 37 41 47 54
49 53 56 53 58 73 75 74 96 34 41 50 89 25 69 64 37 49 63 36 29 16 17 10 13 15 15 12 11 8 10 11 3 1 8 4 19 22 17 25 40 42 44 52 56
45 51 51 56 56 70 85 92 66 55 20 22 66 39 74 81 60 72 74 39 32 16 12 17 18 22 16 10 14 5 11 9 8 2 3 3 13 16 15 30 44 49 51 46 54
51 47 44 51 52 76 87 80 68 80 11 18 24 24 37 47 16 75 72 51 11 24 16 13 7 24 14 12 11 12 12 9 10 6 8 1 10 12 11 16 13 57 59 68 69
44 45 42 49 28 77 85 78 87 35 27 30 14 42 46 37 54 42 67 18 22 18 16 15 20 22 12 18 16 15 13 10 6 6 4 5 2 14 6 12 17 44 70 79 77
36 47 39 54 60 52 89 72 91 12 14 16 25 22 33 11 15 56 29 22 27 12 11 10 10 16 18 7 11 18 15 13 8 6 5 12 12 10 11 16 16 47 64 76 84
40 49 46 53 53 67 98 83 22 23 15 17 24 45 48 14 14 55 38 25 20 19 13 6 6 6 12 16 9 6 15 4 2 2 10 4 5 12 17 19 15 10 28 33 41
46 50 57 67 51 80 111 32 28 16 13 11 33 45 33 32 8 39 43 28 11 14 14 23 14 18 11 16 19 15 17 11 14 7 5 3 14 12 22 28 42 44 41 27 27
43 57 61 71 61 77 91 35 20 27 17 31 49 53 26 12 19 27 39 47 15 17 17 20 9 2 6 11 24 12 12 13 13 5 6 8 13 19 24 21 31 41 34 47 50
43 42 64 58 50 69 39 38 12 25 25 51 35 42 52 52 26 35 43 36 29 13 5 12 11 3 6 11 5 16 22 6 3 7 8 7 8 11 15 10 10 18 34 33 36
38 17 41 59 63 58 31 22 17 35 52 42 27 15 35 52 36 41 40 3 14 11 7 10 10 4 9 12 17 8 9 4 10 9 10 1 11 15 15 14 12 17 15 15 19
17 11 28 70 22 22 29 13 25 48 46 7 11 13 31 54 20 35 22 23 44 24 17 5 11 8 11 5 5 3 16 13 10 10 3 6 12 10 15 10 6 9 8 13 10
11 19 49 104 24 29 28 6 27 53 38 17 13 8 33 34 13 11 15 15 46 33 25 15 2 8 7 3 4 8 3 13 9 5 14 9 12 5 15 14 6 2 6 5 9
8 6 16 71 37 51 42 23 34 45 9 11 17 31 36 26 7 14 26 14 51 18 27 25 9 15 16 4 17 12 12 12 12 6 7 30 4 7 9 6 6 2 8 7 13
16 10 17 22 24 48 52 43 51 31 13 18 12 45 45 17 8 16 20 11 16 42 17 11 16 8 7 8 14 12 22 24 37 53 21 31 25 20 21 7 5 4 6 7 7
12 9 9 21 35 51 46 50 66 32 37 37 35 54 44 33 23 19 17 9 27 7 13 5 3 7 6 5 10 8 18 41 49 35 52 26 15 6 45 28 20 20 18 24 27
22 29 13 27 50 36 30 48 63 42 16 38 43 39 27 18 20 30 27 21 33 33 28 15 12 6 7 3 12 8 27 27 28 29 23 40 16 12 12 23 48 47 39 44 43
Wind_Direction_850mb
250 251 252 250 250 253 251 231 232 227 233 229 217 194 198 198 202 204 206 208 203 186 191 196 196 198 189 163 147 135 78 205 211 159 232 167 180 164 178 158 168 185 173 162 178
248 249 249 254 247 246 248 225 227 220 222 227 211 203 191 194 203 212 210 209 205 199 184 184 177 160 145 135 155 132 140 209 209 223 189 204 186 169 165 163 199 191 193 177 179
247 247 248 245 240 243 258 224 223 215 219 224 211 217 199 193 200 222 211 204 209 202 196 186 173 160 124 144 161 157 176 181 173 256 268 223 220 177 158 218 209 204 201 187 184
249 247 248 241 244 250 250 239 219 214 213 216 215 205 209 198 190 221 212 206 205 196 190 190 195 174 126 156 171 155 223 173 165 93 276 208 200 203 199 206 231 220 219 198 191
253 249 247 239 235 231 240 242 211 213 209 209 208 193 204 191 205 188 187 192 203 191 191 179 172 151 142 166 139 160 216 195 193 251 271 247 234 222 220 214 214 198 211 211 204
252 252 242 247 235 238 234 241 209 211 206 206 198 197 200 202 211 175 184 181 195 188 189 190 192 167 132 163 141 150 324 283 184 110 99 164 246 217 235 214 208 203 212 211 212
248 246 244 242 241 236 241 246 212 208 205 202 202 197 192 219 214 196 174 188 188 185 172 177 189 171 147 124 148 111 116 326 244 175 140 161 238 232 261 206 209 207 209 210 211
243 242 243 234 243 235 236 240 217 207 204 198 197 195 176 177 200 188 173 174 181 182 175 163 167 157 146 135 78 52 67 91 274 191 172 159 267 245 221 217 216 207 206 209 210
241 237 245 233 237 232 227 231 209 204 202 195 187 179 182 190 185 189 176 172 172 181 180 177 156 157 140 118 64 33 169 199 304 213 156 170 238 198 201 213 226 222 213 215 217
242 237 239 233 228 228 221 230 213 198 194 185 178 165 180 195 186 174 173 171 156 155 151 160 154 110 75 129 188 179 173 196 196 231 203 195 263 267 214 212 221 225 225 224 224
248 242 239 243 225 224 212 220 201 187 167 177 173 182 181 171 175 174 171 168 153 149 131 162 129 176 181 171 170 142 149 165 204 209 177 209 252 247 227 246 222 235 232 231 231
243 248 246 238 233 220 209 220 193 204 152 191 177 166 165 168 154 166 163 147 152 144 123 80 194 199 160 161 138 150 158 195 294 320 196 199 257 259 199 233 237 234 231 239 240
243 248 243 243 244 224 211 221 199 189 131 183 175 171 162 171 166 164 168 152 150 135 167 152 197 148 138 141 138 156 166 173 178 110 274 350 276 258 247 235 245 247 244 241 243
239 252 252 238 251 216 207 215 205 174 156 150 182 185 171 165 131 167 169 151 156 173 129 168 140 150 144 169 132 163 210 151 145 111 229 318 273 277 246 244 216 238 243 243 242
245 255 263 219 240 212 209 209 191 181 186 148 157 169 165 166 145 177 165 145 152 153 147 186 152 151 158 180 156 211 130 127 100 116 7 326 306 266 352 247 249 237 237 242 247
243 257 265 232 252 217 204 206 169 182 165 148 156 169 154 148 165 153 160 151 132 104 64 153 156 156 168 93 144 151 84 52 54 88 283 221 188 251 192 203 234 240 240 240 241
252 255 259 231 250 225 192 172 176 198 148 149 154 162 166 140 127 162 168 155 156 134 159 98 155 136 135 90 44 99 100 32 316 285 223 36 275 271 257 245 231 253 246 250 247
253 263 262 240 247 199 171 166 196 122 166 141 160 152 153 138 122 176 162 172 226 116 137 166 201 167 179 158 161 189 161 157 190 201 239 68 241 246 234 273 264 253 257 251 230
264 274 256 234 230 202 166 196 174 148 146 142 161 153 133 183 132 164 186 191 169 175 152 162 185 61 122 143 150 188 199 153 106 38 61 218 288 292 266 267 268 262 254 254 249
266 280 254 235 230 206 179 183 134 139 129 152 154 168 164 182 147 173 185 205 188 172 169 179 110 343 140 107 53 175 153 154 357 153 250 262 267 238 275 298 325 253 237 248 249
267 254 268 228 200 197 185 193 129 145 148 160 158 157 169 171 177 177 182 51 149 123 61 132 98 208 140 211 162 132 180 94 133 171 176 211 258 216 254 255 287 306 240 246 233
244 245 222 180 171 185 187 182 115 150 157 137 99 55 162 169 154 176 176 198 169 144 139 154 108 137 188 209 187 135 170 156 166 234 289 130 267 208 230 244 256 311 347 233 218
222 252 191 176 180 184 170 221 141 155 162 158 128 154 150 165 133 133 139 158 161 166 164 177 103 99 62 318 42 200 163 161 110 89 201 156 253 207 250 253 253 313 118 163 195
265 259 238 181 174 172 172 185 152 166 97 100 111 127 140 166 69 147 150 177 174 165 176 136 147 158 184 171 135 170 162 159 141 226 167 234 287 291 221 168 301 340 71 152 182
225 237 253 173 174 177 169 172 152 165 158 132 115 158 157 148 124 156 154 124 164 164 153 144 183 144 57 142 150 155 172 176 199 222 200 238 211 237 275 275 211 157 135 139 172
214 214 232 149 160 169 174 178 168 164 158 183 164 168 168 159 183 157 123 135 168 90 133 17 232 121 34 56 126 139 187 196 212 216 235 233 250 232 240 241 216 224 230 255 260
235 248 255 167 168 164 182 172 173 158 3 167 145 155 168 161 101 137 150 125 150 172 171 134 126 96 212 22 100 329 215 207 223 221 225 237 214 203 225 238 257 263 265 270 275